This demonstration page uses our WeatherBlox Daily Observations layout. Learn more.

Left ArrowRight Arrow

Hourly Observations for February 8, 2019

Temp ( °F °C ) Dew Point ( °F °C ) Humidity (%) Winds ( mph kmh ) Pressure ( in mb ) Visibility ( mi km ) Precip ( " mm )
12:53 am 00:53 Cloudy 34 1.1 26 -3.3 73 73 W 17 28 30.07 1018 10 16.0934 N/A
1:53 am 01:53 Cloudy 31 -0.6 24 -4.4 76 76 WNW 18 30 30.14 1021 10 16.0934 N/A
2:34 am 02:34 Cloudy 31 -0.6 22 -5.6 69 69 W 16 26 30.2 1023 10 16.0934 N/A
2:42 am 02:42 Cloudy 30 -1.1 22 -5.6 72 72 WNW 17 28 30.2 1023 10 16.0934 N/A
2:53 am 02:53 Cloudy 30 -1.1 22 -5.6 72 72 W 15 24 30.17 1022 10 16.0934 N/A
3:16 am 03:16 Cloudy 29 -1.7 20 -6.7 69 69 W 15 24 30.22 1023 10 16.0934 N/A
3:28 am 03:28 Cloudy 28 -2.2 20 -6.7 72 72 WNW 16 26 30.23 1024 10 16.0934 N/A
3:53 am 03:53 Cloudy 28 -2.2 20 -6.7 72 72 W 15 24 30.21 1023 10 16.0934 N/A
4:53 am 04:53 Cloudy 26 -3.3 18 -7.8 71 71 W 13 20 30.27 1025 10 16.0934 N/A
5:53 am 05:53 Mostly Cloudy 24 -4.4 16 -8.9 71 71 WNW 10 17 30.31 1026 10 16.0934 N/A
6:25 am 06:25 Cloudy 24 -4.4 15 -9.4 68 68 W 15 24 30.37 1028 10 16.0934 N/A
6:39 am 06:39 Cloudy 24 -4.4 16 -8.9 71 71 W 13 20 30.38 1029 10 16.0934 N/A
6:53 am 06:53 Cloudy 24 -4.4 14 -10 65 65 W 20 31 30.35 1028 10 16.0934 N/A
7:53 am 07:53 Cloudy 22 -5.6 13 -10.6 68 68 WSW 16 26 30.4 1029 10 16.0934 N/A
8:53 am 08:53 Cloudy 22 -5.6 12 -11.1 66 66 W 13 20 30.44 1031 10 16.0934 N/A
9:53 am 09:53 Mostly Sunny 23 -5 12 -11.1 63 63 WSW 20 31 30.48 1032 10 16.0934 N/A
10:53 am 10:53 Cloudy 24 -4.4 13 -10.6 62 62 W 16 26 30.5 1033 10 16.0934 N/A
11:53 am 11:53 Mostly Sunny 24 -4.4 12 -11.1 60 60 W 15 24 30.53 1034 10 16.0934 N/A
12:53 pm 12:53 Mostly Cloudy 25 -3.9 13 -10.6 60 60 WSW 16 26 30.54 1034 10 16.0934 N/A
1:53 pm 13:53 Mostly Cloudy 26 -3.3 13 -10.6 57 57 W 16 26 30.54 1034 10 16.0934 N/A
2:53 pm 14:53 Partly Cloudy 28 -2.2 14 -10 56 56 W 16 26 30.55 1035 10 16.0934 N/A
3:53 pm 15:53 Sunny 26 -3.3 13 -10.6 57 57 W 15 24 30.57 1035 10 16.0934 N/A
4:53 pm 16:53 Mostly Sunny 26 -3.3 12 -11.1 55 55 WNW 15 24 30.59 1036 10 16.0934 N/A
5:53 pm 17:53 Sunny 24 -4.4 12 -11.1 60 60 WNW 14 22 30.62 1037 10 16.0934 N/A
6:53 pm 18:53 Clear 23 -5 11 -11.7 60 60 WNW 15 24 30.65 1038 10 16.0934 N/A
7:53 pm 19:53 Clear 22 -5.6 11 -11.7 63 63 WNW 10 17 30.7 1040 10 16.0934 N/A
8:53 pm 20:53 Clear 21 -6.1 10 -12.2 62 62 WNW 12 19 30.72 1040 10 16.0934 N/A
9:53 pm 21:53 Clear 20 -6.7 10 -12.2 65 65 WNW 10 17 30.76 1042 10 16.0934 N/A
10:53 pm 22:53 Clear 20 -6.7 10 -12.2 65 65 WNW 9 15 30.77 1042 10 16.0934 N/A
11:53 pm 23:53 Clear 19 -7.2 10 -12.2 68 68 WNW 10 17 30.78 1042 10 16.0934 N/A

Powered by AerisWeather